Wind from 161 at 6 knots gusting 10

Air temperature 10.0° C
Dewpoint 8.3° C

Last reported at 2014-Apr-24 08:21 UTC.
Time now 2014-Apr-24 09:07 UTC

Location: N 47°55' W 122°35'.
View on Google Maps.

See reports from other nearby stations

Tides Stations Pressure Air Temp Water Temp Dewpoint Dewpoint depression Visibility Wind Speed Wind Dir Waves Ship positions

  
sailing weather and tide predictions

CW5456 Hansville WA US weather

date/time (UTC)wind fromknots sea level pressurealtimeterstation pressurevisibilityair tempwater tempwave heightnotes
2014-Apr-24 08:21 161 6 gusting 10 10.0
2014-Apr-24 08:16 125 6 gusting 10 10.0
2014-Apr-24 08:11 150 6 gusting 9 10.0
2014-Apr-24 08:01 160 9 gusting 10 10.0
2014-Apr-24 07:56 146 1 gusting 11 10.0
2014-Apr-24 07:51 092 7 gusting 11 10.0
2014-Apr-24 07:41 137 6 gusting 13 10.0
2014-Apr-24 07:31 150 13 gusting 13 10.0
2014-Apr-24 07:11 171 5 gusting 5 9.4
2014-Apr-24 06:36 161 0 gusting 6 9.4
2014-Apr-24 06:31 171 0 gusting 10 9.4
2014-Apr-24 06:16 189 3 gusting 11 9.4
2014-Apr-24 06:11 198 9.4
2014-Apr-24 05:11 158 5 gusting 10 9.4
2014-Apr-24 05:06 122 5 gusting 8 9.4
2014-Apr-24 04:36 172 5 gusting 11 9.4
2014-Apr-24 04:31 116 3 gusting 8 9.4
2014-Apr-24 04:21 236 1 gusting 7 9.4
2014-Apr-24 04:16 119 3 gusting 11 9.4
2014-Apr-24 04:06 144 0 gusting 10 9.4
2014-Apr-24 04:01 127 2 gusting 9 9.4
2014-Apr-24 03:36 133 2 gusting 8 9.4
2014-Apr-24 03:31 114 3 gusting 7 9.4
2014-Apr-24 03:11 143 3 gusting 7 10.0
2014-Apr-24 03:01 238 10.0
2014-Apr-24 02:46 156 0 gusting 5 10.0
2014-Apr-24 02:16 153 0 gusting 6 10.0
2014-Apr-24 02:06 183 2 gusting 8 10.0
2014-Apr-24 02:01 182 5 gusting 7 10.6
2014-Apr-24 01:56 157 5 gusting 7 10.6
2014-Apr-24 01:51 122 5 gusting 7 10.6
2014-Apr-24 01:31 155 6 gusting 9 11.1
2014-Apr-24 01:26 169 1 gusting 7 11.1
2014-Apr-24 01:21 090 0 gusting 9 11.1
2014-Apr-24 01:16 184 2 gusting 9 11.1
2014-Apr-24 01:11 190 3 gusting 7 11.7
2014-Apr-24 00:56 149 0 gusting 9 11.7
2014-Apr-24 00:51 110 1 gusting 9 11.7
2014-Apr-24 00:41 121 1 gusting 8 11.7
2014-Apr-24 00:36 172 5 gusting 7 11.7
2014-Apr-24 00:31 157 1 gusting 7 11.7
2014-Apr-24 00:21 138 3 gusting 13 11.7
2014-Apr-24 00:11 072 2 gusting 11 11.7
2014-Apr-24 00:06 246 1 gusting 11 11.7
2014-Apr-23 23:41 175 3 gusting 13 12.2
2014-Apr-23 23:36 248 5 gusting 13 12.2
2014-Apr-23 23:31 136 2 gusting 11 12.2
2014-Apr-23 23:21 103 1 gusting 15 12.2
2014-Apr-23 23:16 170 0 gusting 15 12.2
2014-Apr-23 23:11 219 3 gusting 15 12.2
2014-Apr-23 22:51 215 6 gusting 11 12.2
2014-Apr-23 22:46 194 8 gusting 11 12.2
2014-Apr-23 22:31 219 11 gusting 16 12.2
2014-Apr-23 22:21 159 7 gusting 14 12.2
2014-Apr-23 22:01 192 3 gusting 12 12.2
2014-Apr-23 21:41 209 12.2
2014-Apr-23 21:36 197 6 gusting 17 12.8
2014-Apr-23 21:31 133 1 gusting 15 12.2
2014-Apr-23 21:21 191 2 gusting 9 12.2
2014-Apr-23 21:16 183 1 gusting 14 12.2
2014-Apr-23 21:01 172 6 gusting 12 12.2
2014-Apr-23 20:56 102 1 gusting 14 12.2
2014-Apr-23 20:46 163 1 gusting 16 12.2
2014-Apr-23 20:41 217 8 gusting 16 12.2
2014-Apr-23 20:21 209 9 gusting 13 12.2
2014-Apr-23 20:16 211 8 gusting 14 12.2
2014-Apr-23 19:51 168 5 gusting 16 13.3
2014-Apr-23 19:46 190 8 gusting 16 13.9
2014-Apr-23 19:41 190 5 gusting 16 13.9
2014-Apr-23 19:21 193 8 gusting 15 13.3
2014-Apr-23 19:11 156 15 gusting 16 13.3
2014-Apr-23 19:06 204 5 gusting 20 13.3
2014-Apr-23 18:51 156 3 gusting 16 13.3
2014-Apr-23 18:46 184 16 gusting 17 13.3
2014-Apr-23 18:41 185 6 gusting 17 12.8
2014-Apr-23 18:36 161 13 gusting 15 12.8
2014-Apr-23 18:31 191 2 gusting 17 12.8
2014-Apr-23 18:26 138 6 gusting 17 12.2
2014-Apr-23 18:21 217 5 gusting 17 12.2
2014-Apr-23 18:11 213 6 gusting 15 12.2
2014-Apr-23 18:06 199 6 gusting 15 11.7
2014-Apr-23 17:16 184 2 gusting 10 10.6
2014-Apr-23 17:11 254 3 gusting 10 10.6
2014-Apr-23 16:56 177 10.0
2014-Apr-23 16:31 180 6 gusting 10 10.0
2014-Apr-23 16:26 249 3 gusting 9 10.0
2014-Apr-23 16:06 198 1 gusting 7 9.4
2014-Apr-23 15:16 155 9 gusting 9 8.3
2014-Apr-23 14:56 164 5 gusting 7 8.3
2014-Apr-23 14:41 158 3 gusting 11 7.8
2014-Apr-23 14:26 131 7.8
2014-Apr-23 14:21 200 7.8
2014-Apr-23 14:01 182 1 gusting 11 7.2
2014-Apr-23 13:46 087 2 gusting 9 7.2
2014-Apr-23 13:41 217 9 gusting 9 7.2
2014-Apr-23 13:36 140 6 gusting 9 7.2
2014-Apr-23 13:31 157 6 gusting 9 7.2
2014-Apr-23 13:21 205 5 gusting 11 7.2
2014-Apr-23 13:01 267 3 gusting 9 7.2
2014-Apr-23 12:51 200 1 gusting 10 7.2
2014-Apr-23 12:36 254 1 gusting 9 7.2
2014-Apr-23 12:31 235 6 gusting 9 7.2
2014-Apr-23 12:26 178 5 gusting 8 7.2
2014-Apr-23 12:16 186 0 gusting 10 7.2
2014-Apr-23 11:56 274 0 gusting 12 7.2
2014-Apr-23 11:51 194 5 gusting 13 7.8
2014-Apr-23 11:41 148 5 gusting 15 7.8
2014-Apr-23 11:31 155 9 gusting 10 7.8
2014-Apr-23 11:21 132 6 gusting 11 7.8
2014-Apr-23 10:56 150 5 gusting 11 7.8
2014-Apr-23 10:11 234 0 gusting 7 7.8
2014-Apr-23 10:01 173 3 gusting 10 7.8
2014-Apr-23 09:56 199 8 gusting 10 7.8
2014-Apr-23 09:51 233 6 gusting 9 7.8
2014-Apr-23 09:46 092 7.8
2014-Apr-23 09:31 217 7.8
2014-Apr-23 09:11 130 7.2
2014-Apr-23 09:01 202 1 gusting 12 7.2
2014-Apr-23 08:51 173 12 gusting 16 7.2
2014-Apr-23 08:41 195 6 gusting 11 7.2
2014-Apr-23 08:11 171 3 gusting 12 7.2
2014-Apr-23 08:06 193 1 gusting 13 7.2
2014-Apr-23 08:01 176 3 gusting 13 7.2
2014-Apr-23 07:41 167 6 gusting 13 7.8
2014-Apr-23 07:21 182 0 gusting 7 7.2
2014-Apr-23 07:16 229 6 gusting 9 7.2
2014-Apr-23 07:11 179 1 gusting 9 7.2
2014-Apr-23 07:06 138 7.2
2014-Apr-23 06:51 084 7 gusting 11 7.2
2014-Apr-23 06:41 202 2 gusting 10 7.2
2014-Apr-23 06:21 163 5 gusting 12 7.8
2014-Apr-23 06:16 175 1 gusting 12 7.8
2014-Apr-23 06:11 164 7 gusting 12 7.8
2014-Apr-23 06:06 209 3 gusting 15 7.8
2014-Apr-23 05:56 142 1 gusting 12 7.8
2014-Apr-23 05:41 188 5 gusting 14 7.8
2014-Apr-23 05:21 144 6 gusting 14 7.8
2014-Apr-23 05:16 186 11 gusting 14 7.8
2014-Apr-23 05:06 188 1 gusting 19 7.8
2014-Apr-23 04:56 153 7 gusting 13 7.8
2014-Apr-23 04:46 229 9 gusting 16 7.8
2014-Apr-23 04:41 177 6 gusting 16 7.8
2014-Apr-23 04:16 226 2 gusting 17 7.8
2014-Apr-23 04:06 189 5 gusting 17 7.8
2014-Apr-23 03:41 207 6 gusting 11 7.8
2014-Apr-23 03:36 182 1 gusting 11 8.3
2014-Apr-23 03:31 139 0 gusting 10 8.3
2014-Apr-23 03:26 118 3 gusting 18 8.3
2014-Apr-23 03:21 117 0 gusting 18 8.3
2014-Apr-23 03:06 207 6 gusting 22 9.4
2014-Apr-23 02:56 162 10 gusting 15 10.0
2014-Apr-23 02:51 197 6 gusting 19 10.0
2014-Apr-23 02:36 139 5 gusting 26 10.0
2014-Apr-23 01:41 196 12 gusting 15 11.7
2014-Apr-23 01:26 146 11.7
2014-Apr-23 01:21 163 7 gusting 12 11.7
2014-Apr-23 01:11 126 5 gusting 9 12.2
2014-Apr-23 01:06 180 9 gusting 9 12.2
2014-Apr-23 00:51 196 1 gusting 6 12.8
2014-Apr-23 00:46 224 1 gusting 6 12.8
2014-Apr-23 00:36 271 6 gusting 10 12.8
2014-Apr-23 00:16 311 1 gusting 6 11.1
2014-Apr-23 00:01 346 5 gusting 10 12.2
2014-Apr-22 23:56 325 3 gusting 7 12.8
2014-Apr-22 23:36 167 0 gusting 1 12.2
2014-Apr-22 23:26 167 12.2
2014-Apr-22 23:16 128 12.2
2014-Apr-22 23:06 183 2 gusting 9 12.2
2014-Apr-22 22:56 136 1 gusting 8 12.2
2014-Apr-22 22:51 171 6 gusting 7 12.2
2014-Apr-22 22:46 134 2 gusting 12 12.2
2014-Apr-22 22:36 205 3 gusting 10 12.2
2014-Apr-22 22:31 157 2 gusting 10 12.2
2014-Apr-22 22:16 240 5 gusting 12 12.8
2014-Apr-22 22:06 162 6 gusting 11 12.2
2014-Apr-22 21:56 167 6 gusting 6 11.1
2014-Apr-22 21:51 061 1 gusting 6 11.1
2014-Apr-22 21:46 137 2 gusting 7 11.1
2014-Apr-22 21:41 079 6 gusting 7 11.1
2014-Apr-22 21:36 125 3 gusting 9 10.6
2014-Apr-22 21:06 084 0 gusting 6 11.1
2014-Apr-22 21:01 094 5 gusting 6 10.6
2014-Apr-22 20:56 041 3 gusting 9 10.6
2014-Apr-22 20:51 085 1 gusting 9 10.6
2014-Apr-22 20:46 052 5 gusting 6 11.1
2014-Apr-22 20:41 095 0 gusting 6 11.1
2014-Apr-22 20:26 119 2 gusting 8 11.1
2014-Apr-22 20:21 098 1 gusting 7 11.1
2014-Apr-22 20:06 269 2 gusting 9 12.2
2014-Apr-22 19:36 218 2 gusting 10 11.1
2014-Apr-22 19:21 111 2 gusting 9 10.6
2014-Apr-22 19:01 179 9 gusting 16 11.1
2014-Apr-22 18:41 146 10.0
2014-Apr-22 18:36 177 6 gusting 9 10.0
2014-Apr-22 18:31 143 6 gusting 10 10.6
2014-Apr-22 18:21 123 10 gusting 12 10.6
2014-Apr-22 18:11 180 2 gusting 13 10.0
2014-Apr-22 17:41 164 5 gusting 11 8.3
2014-Apr-22 17:31 099 6 gusting 14 8.3
2014-Apr-22 17:16 214 6 gusting 9 7.8
2014-Apr-22 17:06 323 0 gusting 10 7.8
2014-Apr-22 17:01 169 6 gusting 9 7.8
2014-Apr-22 16:56 196 7 gusting 8 8.3
2014-Apr-22 16:41 211 11 gusting 11 8.3
2014-Apr-22 16:31 184 2 gusting 14 7.8
2014-Apr-22 16:16 227 7.8
2014-Apr-22 16:11 188 0 gusting 8 7.8
2014-Apr-22 16:06 203 2 gusting 10 7.8
2014-Apr-22 15:41 126 0 gusting 8 7.2
2014-Apr-22 15:36 209 3 gusting 11 7.2
2014-Apr-22 15:21 215 5 gusting 7 6.7
2014-Apr-22 14:26 188 2 gusting 6 6.7
2014-Apr-22 14:21 178 3 gusting 6 6.7
2014-Apr-22 14:11 267 1 gusting 5 6.7
2014-Apr-22 13:56 242 1 gusting 2 6.7
2014-Apr-22 13:46 244 0 gusting 3 6.7
2014-Apr-22 13:31 257 1 gusting 2 6.7
2014-Apr-22 13:26 299 1 gusting 2 6.7
2014-Apr-22 13:01 292 2 gusting 5 6.7
2014-Apr-22 12:36 200 3 gusting 5 7.2
2014-Apr-22 12:31 296 2 gusting 9 7.2
2014-Apr-22 12:06 343 5 gusting 6 6.7
2014-Apr-22 12:01 340 0 gusting 6 6.7
2014-Apr-22 11:56 355 1 gusting 3 6.7
2014-Apr-22 11:51 355 0 gusting 6 6.7
2014-Apr-22 11:41 005 3 gusting 5 6.7
2014-Apr-22 11:31 316 6.7
2014-Apr-22 11:16 311 0 gusting 6 6.7
2014-Apr-22 11:11 295 2 gusting 6 6.7
2014-Apr-22 11:06 296 3 gusting 7 6.7
2014-Apr-22 11:01 309 6.7
2014-Apr-22 10:01 244 6.7
2014-Apr-22 09:46 298 0 gusting 2 6.7
2014-Apr-22 09:41 355 0 gusting 2 6.7
2014-Apr-22 09:36 292 6.7
2014-Apr-22 09:26 279 0 gusting 3 6.7
2014-Apr-22 09:21 261 1 gusting 3 6.7
2014-Apr-22 09:01 350 5 gusting 7 7.2